Time,TemperatureF,DewpointF,PressureIn,WindDirection,WindDirectionDegrees,WindSpeedMPH,WindSpeedGustMPH,Humidity,HourlyPrecipIn,Conditions,Clouds,dailyrainin,SolarRadiationWatts/m^2,SoftwareType,DateUTC
2013-06-06 00:11:00,51.5,49.0,29.95,SSW,211,0.0,1.0,91,0.00,,,0.00,0,weatherlink.com 1.10,2013-06-06 07:11:00,
2013-06-06 00:26:00,51.5,49.0,29.95,SW,215,0.0,3.0,91,0.00,,,0.00,0,weatherlink.com 1.10,2013-06-06 07:26:00,
2013-06-06 00:41:00,51.5,49.0,29.95,SW,229,0.0,1.0,91,0.00,,,0.00,0,weatherlink.com 1.10,2013-06-06 07:41:00,
2013-06-06 00:56:00,51.4,49.0,29.94,SW,229,0.0,3.0,91,0.00,,,0.00,0,weatherlink.com 1.10,2013-06-06 07:56:00,
2013-06-06 01:11:00,51.4,49.0,29.94,SW,229,0.0,1.0,91,0.00,,,0.00,0,weatherlink.com 1.10,2013-06-06 08:11:00,
2013-06-06 01:27:00,51.4,49.0,29.94,SW,229,0.0,1.0,92,0.00,,,0.00,0,weatherlink.com 1.10,2013-06-06 08:27:00,
2013-06-06 01:42:00,51.4,49.0,29.94,SW,229,0.0,1.0,92,0.00,,,0.00,0,weatherlink.com 1.10,2013-06-06 08:42:00,
2013-06-06 01:57:00,51.3,49.0,29.94,SW,229,0.0,2.0,91,0.00,,,0.00,0,weatherlink.com 1.10,2013-06-06 08:57:00,
2013-06-06 02:12:00,51.3,49.0,29.94,SSW,196,0.0,2.0,91,0.00,,,0.00,0,weatherlink.com 1.10,2013-06-06 09:12:00,
2013-06-06 02:27:00,51.2,49.0,29.94,SSW,196,0.0,1.0,91,0.00,,,0.00,0,weatherlink.com 1.10,2013-06-06 09:27:00,
2013-06-06 02:42:00,51.0,49.0,29.93,SSW,207,0.0,2.0,91,0.00,,,0.00,0,weatherlink.com 1.10,2013-06-06 09:42:00,
2013-06-06 02:57:00,50.8,48.0,29.93,SW,225,0.0,4.0,91,0.00,,,0.00,0,weatherlink.com 1.10,2013-06-06 09:57:00,
2013-06-06 03:12:00,50.8,48.0,29.93,SW,225,0.0,1.0,91,0.00,,,0.00,0,weatherlink.com 1.10,2013-06-06 10:12:00,
2013-06-06 03:27:00,50.8,48.0,29.93,SW,225,0.0,1.0,91,0.00,,,0.00,0,weatherlink.com 1.10,2013-06-06 10:27:00,
2013-06-06 03:42:00,50.7,48.0,29.93,SW,227,0.0,1.0,91,0.00,,,0.00,0,weatherlink.com 1.10,2013-06-06 10:42:00,
2013-06-06 03:57:00,50.7,48.0,29.93,SW,227,0.0,1.0,91,0.00,,,0.00,0,weatherlink.com 1.10,2013-06-06 10:57:00,
2013-06-06 04:12:00,50.6,48.0,29.93,SW,227,0.0,0.0,91,0.00,,,0.00,0,weatherlink.com 1.10,2013-06-06 11:12:00,
2013-06-06 04:27:00,50.5,48.0,29.93,SW,231,0.0,3.0,91,0.00,,,0.00,0,weatherlink.com 1.10,2013-06-06 11:27:00,
2013-06-06 04:42:00,50.5,48.0,29.93,SW,231,0.0,1.0,91,0.00,,,0.00,0,weatherlink.com 1.10,2013-06-06 11:42:00,
2013-06-06 04:57:00,50.6,48.0,29.93,SW,231,2.0,2.0,91,0.00,,,0.00,0,weatherlink.com 1.10,2013-06-06 11:57:00,
2013-06-06 05:12:00,50.5,48.0,29.93,SW,231,0.0,1.0,91,0.00,,,0.00,0,weatherlink.com 1.10,2013-06-06 12:12:00,
2013-06-06 05:27:00,50.5,48.0,29.93,SW,231,0.0,1.0,91,0.00,,,0.00,0,weatherlink.com 1.10,2013-06-06 12:27:00,
2013-06-06 05:42:00,50.5,48.0,29.93,SW,232,0.0,1.0,91,0.00,,,0.00,0,weatherlink.com 1.10,2013-06-06 12:42:00,
2013-06-06 05:57:00,50.5,48.0,29.93,SW,232,0.0,0.0,91,0.00,,,0.00,0,weatherlink.com 1.10,2013-06-06 12:57:00,
2013-06-06 06:12:00,50.6,48.0,29.94,SW,232,0.0,0.0,92,0.00,,,0.00,11,weatherlink.com 1.10,2013-06-06 13:12:00,
2013-06-06 06:27:00,50.8,49.0,29.94,SW,232,0.0,0.0,92,0.00,,,0.00,19,weatherlink.com 1.10,2013-06-06 13:27:00,
2013-06-06 06:42:00,51.0,49.0,29.94,SW,232,0.0,0.0,92,0.00,,,0.00,30,weatherlink.com 1.10,2013-06-06 13:42:00,
2013-06-06 06:57:00,51.2,49.0,29.94,SW,232,0.0,0.0,92,0.00,,,0.00,44,weatherlink.com 1.10,2013-06-06 13:57:00,
2013-06-06 07:12:00,51.4,49.0,29.94,SW,232,0.0,0.0,92,0.00,,,0.00,56,weatherlink.com 1.10,2013-06-06 14:12:00,
2013-06-06 07:27:00,51.7,50.0,29.94,SW,232,0.0,0.0,92,0.00,,,0.00,70,weatherlink.com 1.10,2013-06-06 14:27:00,
2013-06-06 07:42:00,51.9,50.0,29.95,SW,232,0.0,1.0,93,0.00,,,0.00,76,weatherlink.com 1.10,2013-06-06 14:42:00,
2013-06-06 07:57:00,52.1,50.0,29.95,South,181,0.0,2.0,92,0.00,,,0.00,181,weatherlink.com 1.10,2013-06-06 14:57:00,
2013-06-06 08:12:00,53.0,51.0,29.95,South,180,0.0,1.0,91,0.00,,,0.00,155,weatherlink.com 1.10,2013-06-06 15:12:00,
2013-06-06 08:27:00,53.9,51.0,29.95,SSW,194,0.0,3.0,89,0.00,,,0.00,188,weatherlink.com 1.10,2013-06-06 15:27:00,
2013-06-06 08:42:00,54.8,51.0,29.95,WNW,283,0.0,3.0,88,0.00,,,0.00,197,weatherlink.com 1.10,2013-06-06 15:42:00,
2013-06-06 08:57:00,55.3,52.0,29.95,WNW,283,0.0,3.0,87,0.00,,,0.00,246,weatherlink.com 1.10,2013-06-06 15:57:00,
2013-06-06 09:12:00,55.9,52.0,29.95,NW,306,1.0,4.0,86,0.00,,,0.00,269,weatherlink.com 1.10,2013-06-06 16:12:00,
2013-06-06 09:27:00,56.7,52.0,29.95,SW,235,0.0,2.0,84,0.00,,,0.00,309,weatherlink.com 1.10,2013-06-06 16:27:00,
2013-06-06 09:42:00,58.3,53.0,29.95,WNW,290,0.0,4.0,82,0.00,,,0.00,359,weatherlink.com 1.10,2013-06-06 16:42:00,
2013-06-06 09:58:00,58.2,52.0,29.94,WSW,244,0.0,1.0,81,0.00,,,0.00,394,weatherlink.com 1.10,2013-06-06 16:58:00,
2013-06-06 10:13:00,60.5,54.0,29.94,South,186,0.0,6.0,78,0.00,,,0.00,411,weatherlink.com 1.10,2013-06-06 17:13:00,
2013-06-06 10:28:00,61.9,55.0,29.94,SSW,209,0.0,6.0,78,0.00,,,0.00,847,weatherlink.com 1.10,2013-06-06 17:28:00,
2013-06-06 10:43:00,61.8,55.0,29.94,SSW,205,6.0,7.0,78,0.00,,,0.00,568,weatherlink.com 1.10,2013-06-06 17:43:00,
2013-06-06 10:58:00,63.5,56.0,29.94,SSW,204,4.0,7.0,76,0.00,,,0.00,821,weatherlink.com 1.10,2013-06-06 17:58:00,
2013-06-06 11:13:00,65.0,58.0,29.93,WSW,255,0.0,10.0,77,0.00,,,0.00,838,weatherlink.com 1.10,2013-06-06 18:13:00,
2013-06-06 11:28:00,64.6,56.0,29.93,SSE,156,3.0,7.0,74,0.00,,,0.00,861,weatherlink.com 1.10,2013-06-06 18:28:00,
2013-06-06 11:43:00,65.2,56.0,29.93,South,176,3.0,11.0,73,0.00,,,0.00,882,weatherlink.com 1.10,2013-06-06 18:43:00,
2013-06-06 11:58:00,66.1,57.0,29.93,SSW,192,2.0,9.0,73,0.00,,,0.00,900,weatherlink.com 1.10,2013-06-06 18:58:00,
2013-06-06 12:13:00,66.7,56.0,29.93,SW,230,4.0,9.0,69,0.00,,,0.00,918,weatherlink.com 1.10,2013-06-06 19:13:00,
2013-06-06 12:28:00,67.4,57.0,29.92,SSW,196,3.0,10.0,70,0.00,,,0.00,930,weatherlink.com 1.10,2013-06-06 19:28:00,
2013-06-06 12:43:00,68.9,58.0,29.92,ESE,111,3.0,11.0,68,0.00,,,0.00,939,weatherlink.com 1.10,2013-06-06 19:43:00,
2013-06-06 12:58:00,69.9,57.0,29.91,SE,144,5.0,9.0,63,0.00,,,0.00,949,weatherlink.com 1.10,2013-06-06 19:58:00,
2013-06-06 13:13:00,70.3,57.0,29.91,SSE,159,1.0,9.0,63,0.00,,,0.00,953,weatherlink.com 1.10,2013-06-06 20:13:00,
2013-06-06 13:28:00,70.9,58.0,29.90,SSW,197,3.0,10.0,64,0.00,,,0.00,954,weatherlink.com 1.10,2013-06-06 20:28:00,
2013-06-06 13:43:00,72.5,59.0,29.90,West,259,1.0,9.0,62,0.00,,,0.00,951,weatherlink.com 1.10,2013-06-06 20:43:00,
2013-06-06 13:58:00,72.7,58.0,29.89,ESE,115,7.0,9.0,61,0.00,,,0.00,940,weatherlink.com 1.10,2013-06-06 20:58:00,
2013-06-06 14:13:00,74.1,60.0,29.89,East,89,6.0,10.0,61,0.00,,,0.00,930,weatherlink.com 1.10,2013-06-06 21:13:00,
2013-06-06 14:28:00,74.6,60.0,29.88,SE,142,2.0,8.0,60,0.00,,,0.00,916,weatherlink.com 1.10,2013-06-06 21:28:00,
2013-06-06 14:43:00,75.1,58.0,29.88,SSW,204,4.0,10.0,56,0.00,,,0.00,898,weatherlink.com 1.10,2013-06-06 21:43:00,
2013-06-06 14:58:00,75.6,59.0,29.87,South,176,2.0,7.0,56,0.00,,,0.00,872,weatherlink.com 1.10,2013-06-06 21:58:00,
2013-06-06 15:13:00,75.6,59.0,29.87,SW,221,5.0,12.0,56,0.00,,,0.00,851,weatherlink.com 1.10,2013-06-06 22:13:00,
2013-06-06 15:29:00,74.4,59.0,29.86,South,171,3.0,11.0,58,0.00,,,0.00,821,weatherlink.com 1.10,2013-06-06 22:29:00,
2013-06-06 15:44:00,75.7,59.0,29.85,SSW,210,5.0,9.0,56,0.00,,,0.00,793,weatherlink.com 1.10,2013-06-06 22:44:00,
2013-06-06 15:59:00,74.5,58.0,29.85,South,189,5.0,12.0,57,0.00,,,0.00,756,weatherlink.com 1.10,2013-06-06 22:59:00,
2013-06-06 16:14:00,74.0,57.0,29.84,SSE,159,3.0,14.0,56,0.00,,,0.00,722,weatherlink.com 1.10,2013-06-06 23:14:00,
2013-06-06 16:29:00,71.7,56.0,29.84,South,169,11.0,14.0,58,0.00,,,0.00,686,weatherlink.com 1.10,2013-06-06 23:29:00,
2013-06-06 16:44:00,72.0,57.0,29.84,SE,144,6.0,12.0,59,0.00,,,0.00,649,weatherlink.com 1.10,2013-06-06 23:44:00,
2013-06-06 16:59:00,71.2,56.0,29.84,South,188,3.0,14.0,59,0.00,,,0.00,603,weatherlink.com 1.10,2013-06-06 23:59:00,
2013-06-06 17:14:00,71.2,56.0,29.83,South,183,0.0,15.0,60,0.00,,,0.00,561,weatherlink.com 1.10,2013-06-07 00:14:00,
2013-06-06 17:29:00,71.2,56.0,29.84,SE,144,0.0,9.0,59,0.00,,,0.00,517,weatherlink.com 1.10,2013-06-07 00:29:00,
2013-06-06 17:44:00,70.7,56.0,29.83,SSE,150,1.0,9.0,60,0.00,,,0.00,471,weatherlink.com 1.10,2013-06-07 00:44:00,
2013-06-06 17:59:00,70.4,56.0,29.83,SSE,157,5.0,10.0,61,0.00,,,0.00,425,weatherlink.com 1.10,2013-06-07 00:59:00,
2013-06-06 18:14:00,69.5,55.0,29.83,SSE,161,1.0,8.0,61,0.00,,,0.00,357,weatherlink.com 1.10,2013-06-07 01:14:00,
2013-06-06 18:29:00,68.6,55.0,29.83,SSW,203,2.0,9.0,62,0.00,,,0.00,174,weatherlink.com 1.10,2013-06-07 01:29:00,
2013-06-06 18:44:00,65.3,54.0,29.83,SSE,155,3.0,8.0,67,0.00,,,0.00,72,weatherlink.com 1.10,2013-06-07 01:44:00,
2013-06-06 18:59:00,62.7,53.0,29.84,South,178,1.0,9.0,71,0.00,,,0.00,67,weatherlink.com 1.10,2013-06-07 01:59:00,
2013-06-06 19:14:00,62.2,53.0,29.84,South,169,0.0,8.0,73,0.00,,,0.00,174,weatherlink.com 1.10,2013-06-07 02:14:00,
2013-06-06 19:29:00,62.6,53.0,29.84,SSE,152,1.0,7.0,72,0.00,,,0.00,79,weatherlink.com 1.10,2013-06-07 02:29:00,
2013-06-06 19:44:00,61.0,53.0,29.84,SE,138,2.0,7.0,74,0.00,,,0.00,63,weatherlink.com 1.10,2013-06-07 02:44:00,
2013-06-06 19:59:00,59.6,52.0,29.84,SE,128,3.0,6.0,77,0.00,,,0.00,37,weatherlink.com 1.10,2013-06-07 02:59:00,
2013-06-06 20:14:00,57.9,51.0,29.84,SSE,150,3.0,6.0,79,0.00,,,0.00,19,weatherlink.com 1.10,2013-06-07 03:14:00,
2013-06-06 20:29:00,56.5,51.0,29.85,ESE,122,2.0,7.0,82,0.00,,,0.00,7,weatherlink.com 1.10,2013-06-07 03:29:00,
2013-06-06 20:44:00,55.2,51.0,29.85,SE,135,0.0,2.0,84,0.00,,,0.00,0,weatherlink.com 1.10,2013-06-07 03:44:00,
2013-06-06 20:59:00,54.0,50.0,29.86,SSE,152,0.0,3.0,86,0.00,,,0.00,0,weatherlink.com 1.10,2013-06-07 03:59:00,
2013-06-06 21:14:00,53.2,50.0,29.86,SSE,147,0.0,2.0,87,0.00,,,0.00,0,weatherlink.com 1.10,2013-06-07 04:14:00,
2013-06-06 21:29:00,52.3,49.0,29.87,SSE,147,0.0,1.0,88,0.00,,,0.00,0,weatherlink.com 1.10,2013-06-07 04:29:00,
2013-06-06 21:44:00,51.3,48.0,29.87,SSE,147,0.0,0.0,88,0.00,,,0.00,0,weatherlink.com 1.10,2013-06-07 04:44:00,
2013-06-06 21:59:00,50.1,47.0,29.88,SSE,147,0.0,0.0,89,0.00,,,0.00,0,weatherlink.com 1.10,2013-06-07 04:59:00,
2013-06-06 22:14:00,49.2,47.0,29.88,SSE,147,0.0,1.0,90,0.00,,,0.00,0,weatherlink.com 1.10,2013-06-07 05:14:00,
2013-06-06 22:29:00,49.1,47.0,29.89,SSE,147,0.0,0.0,91,0.00,,,0.00,0,weatherlink.com 1.10,2013-06-07 05:29:00,
2013-06-06 22:44:00,49.3,47.0,29.88,SSE,147,0.0,1.0,92,0.00,,,0.00,0,weatherlink.com 1.10,2013-06-07 05:44:00,
2013-06-06 22:59:00,49.8,48.0,29.89,SSE,147,0.0,1.0,92,0.00,,,0.00,0,weatherlink.com 1.10,2013-06-07 05:59:00,
2013-06-06 23:14:00,50.3,48.0,29.88,SSE,147,0.0,1.0,93,0.00,,,0.00,0,weatherlink.com 1.10,2013-06-07 06:14:00,
2013-06-06 23:29:00,50.4,49.0,29.88,SSE,147,0.0,2.0,93,0.00,,,0.00,0,weatherlink.com 1.10,2013-06-07 06:29:00,
2013-06-06 23:44:00,50.6,49.0,29.89,SSE,147,0.0,3.0,93,0.00,,,0.00,0,weatherlink.com 1.10,2013-06-07 06:44:00,
2013-06-06 23:59:00,50.7,49.0,29.88,SSE,147,0.0,0.0,93,0.00,,,0.00,0,weatherlink.com 1.10,2013-06-07 06:59:00,